Location: Houhaj�rvi
(61.2667°N, 23.0167°E)
Time: 17:18:28
(UTC+00:00)

Cosmos 1269 Rocket - Pass Details

Date: 13 December 2019
Orbit: 773 x 778 km, 74.1° (Epoch: 22 January)

Event Time Altitude Azimuth Distance (km) Brightness Sun altitude
Rises 15:18:20 0° 216° (SW) 3,256 8.4 -12.9°
Reaches altitude 10° 15:20:43 10° 217° (SW) 2,331 7.5 -13.2°
Maximum altitude 15:26:02 81° 305° (NW) 796 4.1 -13.8°
Enters shadow 15:30:28 15° 33° (NNE) 2,000 5.7 -14.3°
